Regional Weather Roundup
Issued by NWS

Home | Current Version | Previous Version | Text Only | Print | Product List | Glossary On
Versions: 1 2 3 4 5 6 7 8 9 10 11 12 13 14 15 16 17 18 19 20 21 22 23 24 25 26 27 28 29 30 31 32 33 34 35 36 37 38 39 40 41 42 43 44 45 46 47 48 49 50
000
ASUS43 KDTX 210301
RWRMI
MICHIGAN HOURLY REGIONAL WEATHER ROUNDUP
NATIONAL WEATHER SERVICE DETROIT/PONTIAC MI
1000 PM EST FRI JAN 20 2017

NOTE: "FAIR" INDICATES FEW OR NO CLOUDS BELOW 12,000 FEET WITH NO
SIGNIFICANT WEATHER AND/OR OBSTRUCTION TO VISIBILITY.

MIZ047>049-052>055-059>063-066>070-074>076-081>083-210400-
SOUTHEAST LOWER MICHIGAN

CITY           SKY/WX    TMP DP  RH WIND       PRES   REMARKS
ADRIAN         FOG       40  40 100 S3        29.76R VSB 1/4
ALMA           FOG       33  33  99 CALM      29.72F VSB 1/2
ANN ARBOR      CLOUDY    41  41 100 CALM      29.73S FOG
BAD AXE        FOG       33  33 100 SW3       29.73R VSB 1/2
CARO           CLOUDY    35  35 100 SW6       29.73R FOG     WCI  30
DETROIT CITY   CLOUDY    42  42 100 W5        29.74F FOG
DETROIT        FOG       41  41 100 S5        29.76R VSB 1/2
FLINT          FOG       37  37 100 CALM      29.73S VSB 3/4
GROSSE ILE     FOG       35  35  99 S3        29.75R VSB 1/4
HILLSDALE      CLOUDY    41  41 100 S3        29.71S FOG
HOWELL         CLOUDY    38  37  97 S3        29.72S FOG

CITY           SKY/WX    TMP DP  RH WIND       PRES   REMARKS
JACKSON        FOG       41  40  96 S3        29.72S VSB 1/2
LAMBERTVILLE   CLOUDY    47  46  93 CALM      29.75S FOG
LANSING        CLOUDY    37  36  96 SE3       29.72F FOG
LAPEER         FOG       37  37 100 CALM      29.74S VSB 3/4
MASON          FOG       37  37 100 CALM      29.72S VSB 1
MONROE         CLOUDY    40  40 100 CALM      29.75S FOG
MT. CLEMENS    CLOUDY    38  38 100 CALM      29.73S FOG
PONTIAC        CLOUDY    38  37  97 S5        29.72S FOG     WCI  34
PORT HOPE        N/A     35  34  96 SW3       29.71R
PORT HURON     FOG       36  36 100 CALM      29.76R VSB 1/4
TRI CITIES     CLOUDY    34  34 100 SW5       29.74S FOG     WCI  30
MIDLAND        CLOUDY    35  34  97 SW5       29.73R FOG     WCI  31
TROY           CLOUDY    40  39  95 SW5       29.76S FOG
SAGINAW HB     CLOUDY    34  32  93 CALM      29.73S FOG
$$
MIZ043>046-050>051-056>058-064>065-071>073-077>080-210400-
SOUTHWEST LOWER MICHIGAN

CITY           SKY/WX    TMP DP  RH WIND       PRES   REMARKS
BATTLE CREEK   FOG       41  41 100 S7        29.71S VSB 1/4
BENTON HARBOR  CLOUDY    44  42  93 SE6       29.68S FOG
BIG RAPIDS     CLOUDY    33  32  98 CALM      29.70S FOG
COLDWATER      CLOUDY    43  43 100 CALM      29.71F FOG
FREMONT        FOG       34  34 100 E3        29.70S VSB 3/4
HOLLAND        CLOUDY    38  38 100 E3        29.70S
GRAND RAPIDS   FOG       36  34  92 E3        29.70S VSB 3/4
IONIA          FOG       34  34 100 SE3       29.71R VSB 3/4
KALAMAZOO      FOG       42  40  92 SE3       29.70F VSB 1/4
LUDINGTON      CLOUDY    34  34  99 S3        29.70S FOG
MARSHALL       FOG       41  41  99 S3        29.71S VSB 1/2
MOUNT PLEASANT CLOUDY    33  33  99 CALM      29.71F FOG
MUSKEGON       FOG       37  36  96 E5        29.70S VSB 3/4 WCI  33
SOUTH HAVEN    FOG       41  41  99 E3        29.69S VSB 3/4
$$
MIZ016>042-210400-
NORTHERN LOWER MICHIGAN

CITY           SKY/WX    TMP DP  RH WIND       PRES   REMARKS
ALPENA         FOG       33  32  96 NE5       29.72F VSB 1/4 WCI  29
BEAVER ISLAND  LGT RAIN  33  33 100 E5        29.70S WCI  29
BELLAIRE       CLOUDY    33  33  97 CALM      29.72R
CADILLAC       CLOUDY    33  32  98 S6        29.68R WCI  27
CHARLEVOIX     CLOUDY    34  34 100 SE3       29.73S FOG
FRANKFORT      CLOUDY    36  35  95 S6        29.70S WCI  31
GAYLORD        CLOUDY    35  31  85 S5        29.69R FOG     WCI  31
GRAYLING       CLOUDY    34  33  97 CALM      29.70S FOG
HARBOR SPRINGS FOG       33  33 100 E5        29.71S VSB 1/2 WCI  28
HOUGHTON LAKE  CLOUDY    33  32  96 CALM      29.70R FOG
MANISTEE       CLOUDY    35  33  92 S5        29.71R WCI  31
OSCODA         FOG       34  34  98 CALM      29.72R VSB 1/4
PELLSTON       FOG       33  32  96 SE3       29.72S VSB 1/2
ROGERS CITY    FOG       33  32  96 CALM      29.73F VSB 3/4
TRAVERSE CITY  CLOUDY    37  33  85 S3        29.70R
$$
MIZ007>008-015-210400-
EASTERN UPPER MICHIGAN

CITY           SKY/WX    TMP DP  RH WIND       PRES   REMARKS
KINROSS        MIX PCPN  32  32 100 E9        29.72S VSB 1/2 WCI  24
MACKINAC ISLAN FOG       33  33 100 E6        29.71S VSB 1/4 WCI  28
NEWBERRY       MIX PCPN  32  31  96 E3        29.70F VSB 1
S. S. MARIE    CLOUDY    33  32  96 SE6       29.73R FOG     WCI  28
MUNISING         N/A     34  33  96 CALM      29.68F
$$
MIZ004>006-011>014-085-210400-
CENTRAL UPPER MICHIGAN

CITY           SKY/WX    TMP DP  RH WIND       PRES   REMARKS
MANISTIQUE     LGT SNOW  32  32  99 E3        29.70S
ESCANABA       CLOUDY    33  33 100 E3        29.70R
SAWYER-GWINN   LGT RAIN  32  32 100 CALM      29.66S
$$
MIZ001>003-009>011-084-210400-
WESTERN UPPER MICHIGAN

CITY           SKY/WX    TMP DP  RH WIND       PRES   REMARKS
IRON MOUNTAIN  CLOUDY    33  31  92 SE5       29.64F FOG     WCI  29
HOUGHTON       LGT RAIN  34  32  92 NE6       29.64S WCI  29
COPPER HARBOR    N/A     34  33  96 VRB3      29.66F
IRONWOOD       CLOUDY    35  34  96 E5        29.62S WCI  31
$$

ABBREVIATIONS USED IN REMARKS
   TC - TEMPERATURE IN CELSIUS
  WCI - WIND CHILL INDEX
   HX - HEAT INDEX
  VSB - VISIBILITY




USA.gov is the U.S. government's official web portal to all federal, state and local government web resources and services.